Location: Unspecified
(47.9110°N, 14.3980°E)
Time: 05:50:59
(UTC+00:00)

Meteor 2-3 Rocket - Pass Details

Date: 06 August 2020
Orbit: 841 x 886 km, 81.2° (Epoch: 23 September)

Event Time Altitude Azimuth Distance (km) Brightness Sun altitude
Rises 18:55:47 0° 193° (SSW) 3,466 6.7 -4.7°
Reaches altitude 10° 18:58:12 10° 194° (SSW) 2,536 6.0 -5.0°
Maximum altitude 19:04:00 80° 281° (WNW) 906 4.0 -5.8°
Drops below altitude 10° 19:09:51 10° 10° (N) 2,561 6.5 -6.7°
Sets 19:12:19 0° 11° (NNE) 3,503 7.2 -7.0°
